This is the latest recevied weather packets stored in our database for station/object DL9GRB-13. If no packets are shown the sender has not sent any weather packets the latest 10 day(s).
| Time | Temp. | Humidity | Pressure | Rain* | Wind** | Luminosity | Snow |
|---|---|---|---|---|---|---|---|
| 1777919467 | 13.89° C | 73% | 1011.3 hPa | 0 mm | - | 12 W/m² | - |
| 1777919287 | 13.89° C | 73% | 1011.2 hPa | 0 mm | - | 14 W/m² | - |
| 1777919107 | 13.89° C | 72% | 1011.4 hPa | 0 mm | - | 16 W/m² | - |
| 1777918928 | 14.44° C | 72% | 1011.4 hPa | 0 mm | - | 19 W/m² | - |
| 1777918747 | 14.44° C | 71% | 1011.3 hPa | 0 mm | - | 21 W/m² | - |
| 1777918567 | 14.44° C | 71% | 1011.3 hPa | 0 mm | - | 23 W/m² | - |
| 1777918388 | 14.44° C | 71% | 1011.3 hPa | 0 mm | - | 24 W/m² | - |
| 1777918207 | 15° C | 70% | 1011.3 hPa | 0 mm | - | 26 W/m² | - |
| 1777918028 | 15° C | 69% | 1011.3 hPa | 0 mm | - | 28 W/m² | - |
| 1777917847 | 15° C | 69% | 1011.2 hPa | 0 mm | - | 30 W/m² | - |
| 1777917667 | 15° C | 69% | 1011.1 hPa | 0 mm | - | 32 W/m² | - |
| 1777917487 | 15° C | 69% | 1011.2 hPa | 0 mm | - | 34 W/m² | - |
| 1777917307 | 15° C | 69% | 1011.3 hPa | 0 mm | - | 35 W/m² | - |
| 1777917127 | 15° C | 69% | 1011.2 hPa | 0 mm | - | 36 W/m² | - |
| 1777916947 | 15° C | 69% | 1011.2 hPa | 0 mm | - | 40 W/m² | - |
| 1777916767 | 15.56° C | 68% | 1011.4 hPa | 0 mm | - | 44 W/m² | - |
| 1777916588 | 15.56° C | 67% | 1011.2 hPa | 0 mm | - | 45 W/m² | - |
| 1777916407 | 15.56° C | 67% | 1011.3 hPa | 0 mm | - | 53 W/m² | - |
| 1777916228 | 15.56° C | 67% | 1011.2 hPa | 0 mm | - | 60 W/m² | - |
| 1777916047 | 16.11° C | 67% | 1011.3 hPa | 0 mm | - | 67 W/m² | - |
| 1777915867 | 16.11° C | 67% | 1011.3 hPa | 0 mm | - | 71 W/m² | - |
| 1777915687 | 16.11° C | 67% | 1011.5 hPa | 0 mm | - | 72 W/m² | - |
| 1777915507 | 15.56° C | 68% | 1011.3 hPa | 0 mm | - | 74 W/m² | - |
| 1777915327 | 15.56° C | 69% | 1011.4 hPa | 0 mm | - | 78 W/m² | - |
| 1777915147 | 15.56° C | 69% | 1011.2 hPa | 0 mm | - | 69 W/m² | - |
* Rain latest hour (hover to see other rain measurements)
** Current wind speed in m/s (hover to see current wind gust speed)